FW3983 Weather Reports


time (UTC)temp
F
wind
direction
speed
knots
gust
knots
rain 1hr
in
rain 24hr
in
rain mn
in
humidity
%
barometer
mb
20260503224502 78 5 0.0 2.6 0.00 0.00 0.00 30 1042.7
20260503223102 78 5 0.9 3.5 0.00 0.00 0.00 29 1042.7
20260503223003 78 334 0.0 3.5 0.00 0.00 0.00 31 1042.7
20260503221600 78 345 0.9 3.5 0.00 0.00 0.00 32 1042.7
20260503220052 77 340 0.9 4.3 0.00 0.00 0.00 32 1042.7
20260503214548 77 325 0.0 2.6 0.00 0.00 0.00 31 1042.7
20260503213046 76 319 0.9 4.3 0.00 0.00 0.00 33 1042.7
20260503211541 76 330 0.9 3.5 0.00 0.00 0.00 36 1042.7
20260503210039 75 310 0.9 5.2 0.00 0.00 0.00 36 1042.7
20260503204539 74 340 0.9 4.3 0.00 0.00 0.00 36 1042.7
20260503203051 74 5 0.9 3.5 0.00 0.00 0.00 36 1042.7
20260503201534 74 10 0.9 2.6 0.00 0.00 0.00 39 1042.7
20260503200033 74 342 0.9 3.5 0.00 0.00 0.00 38 1042.7
20260503194530 73 12 0.9 2.6 0.00 0.00 0.00 39 1042.7
20260503193026 71 290 0.0 2.6 0.00 0.00 0.00 43 1042.7
20260503191530 71 259 0.9 2.6 0.00 0.00 0.00 43 1042.7
20260503190030 70 336 0.9 4.3 0.00 0.00 0.00 44 1042.7
20260503184524 71 321 0.9 3.5 0.00 0.00 0.00 43 1042.7
20260503183023 71 306 0.0 0.0 0.00 0.00 0.00 42 1042.7
20260503181522 71 83 0.0 0.0 0.00 0.00 0.00 42 1042.7
20260503180021 71 355 0.9 2.6 0.00 0.00 0.00 43 1042.7
20260503174518 70 360 0.0 2.6 0.00 0.00 0.00 45 1042.7
20260503173016 69 5 0.0 3.5 0.00 0.00 0.00 44 1042.7
20260503171513 69 350 1.7 4.3 0.00 0.00 0.00 45 1042.7
20260503081520 61 73 0.0 0.0 0.00 0.00 0.00 42 1042.7
20260503071517 63 355 0.0 0.0 0.00 0.00 0.00 39 1042.7
20260503054508 62 30 0.0 0.0 0.00 0.00 0.00 41 1042.7
20260503053007 62 47 0.0 0.0 0.00 0.00 0.00 41 1042.7
20260503051505 63 47 0.0 0.9 0.00 0.00 0.00 42 1042.7
20260503050010 63 34 0.0 3.5 0.00 0.00 0.00 43 1042.7
20260503044504 63 10 0.9 1.7 0.00 0.00 0.00 43 1042.7
20260503043007 63 5 0.0 1.7 0.00 0.00 0.00 42 1042.7
20260503041505 63 14 0.0 3.5 0.00 0.00 0.00 43 1042.7
20260503040002 63 18 0.0 0.0 0.00 0.00 0.00 45 1042.7
20260503034502 62 336 0.0 0.0 0.00 0.00 0.00 46 1042.7
20260503033002 62 342 0.0 0.0 0.00 0.00 0.00 48 1042.7
20260503031502 63 338 0.0 0.0 0.00 0.00 0.00 52 1042.7
20260503030000 64 355 0.0 0.0 0.00 0.00 0.00 50 1042.7
20260503024600 65 355 0.0 0.0 0.00 0.00 0.00 48 1042.7
20260503024502 65 355 0.0 0.0 0.00 0.00 0.00 47 1042.7
20260503023100 66 355 0.0 0.0 0.00 0.00 0.00 46 1042.7
20260503021601 67 355 0.0 0.0 0.00 0.00 0.00 46 1042.7
20260503021510 67 355 0.0 0.0 0.00 0.00 0.00 46 1042.7
20260503020059 67 355 0.0 0.0 0.00 0.00 0.00 45 1042.7
20260503014501 68 243 0.0 0.0 0.00 0.00 0.00 44 1042.7
20260503013059 69 321 0.0 2.6 0.00 0.00 0.00 45 1042.7
20260503011608 70 355 0.0 1.7 0.00 0.00 0.00 44 1042.7
20260503010058 71 341 0.0 3.5 0.00 0.00 0.00 42 1042.7
20260503004559 71 355 0.9 3.5 0.00 0.00 0.00 43 1042.7
20260503003059 70 355 0.0 3.5 0.00 0.00 0.00 44 1042.7
20260503001607 70 14 1.7 3.5 0.00 0.00 0.00 44 1042.7
20260503000056 70 343 0.0 4.3 0.00 0.00 0.00 44 1042.7
20260502234556 70 5 0.0 3.5 0.00 0.00 0.00 43 1042.7
20260502233057 72 10 0.0 4.3 0.00 0.00 0.00 42 1042.7
20260502231554 72 292 0.9 2.6 0.00 0.00 0.00 42 1042.7
20260502230055 73 355 0.9 2.6 0.00 0.00 0.00 41 1042.7